Météo par heure à Dziad

Ce jour, 23 Janvier, Samedi

Heure Température Précipitation Vent Pression Humidité
00:00 +2°C° 0 mm 5 m/s 733 mmHg 90%
01:00 +1°C° 0 mm 4 m/s 733 mmHg 90%
02:00 +1°C° 0 mm 4 m/s 733 mmHg 90%
03:00 +1°C° 0 mm 4 m/s 733 mmHg 90%
04:00 +2°C° 0 mm 3 m/s 733 mmHg 91%
05:00 +1°C° 0 mm 3 m/s 733 mmHg 91%
06:00 +1°C° 0 mm 3 m/s 733 mmHg 92%
07:00 +1°C° 0 mm 3 m/s 733 mmHg 92%
08:00 +1°C° 0 mm 3 m/s 733 mmHg 93%
09:00 +1°C° 0 mm 4 m/s 732 mmHg 92%
10:00 +2°C° 0 mm 5 m/s 732 mmHg 92%
11:00 +2°C° 0 mm 5 m/s 732 mmHg 92%
12:00 +3°C° 0 mm 5 m/s 732 mmHg 90%
13:00 +5°C° 0 mm 5 m/s 732 mmHg 89%
14:00 +5°C° 0 mm 5 m/s 732 mmHg 87%
15:00 +5°C° 0 mm 5 m/s 731 mmHg 87%
16:00 +3°C° 0 mm 5 m/s 731 mmHg 86%
17:00 +3°C° 0 mm 5 m/s 731 mmHg 86%
18:00 +3°C° 0 mm 5 m/s 731 mmHg 86%
19:00 +2°C° 0 mm 6 m/s 731 mmHg 86%
20:00 +2°C° 0 mm 6 m/s 731 mmHg 86%
21:00 +2°C° 0 mm 6 m/s 731 mmHg 85%
22:00 +2°C° 0 mm 5 m/s 731 mmHg 85%
23:00 +3°C° 0 mm 5 m/s 730 mmHg 84%

Demain, 24 Janvier, Dimanche

Heure Température Précipitation Vent Pression Humidité
00:00 +3°C° 0 mm 4 m/s 730 mmHg 85%
01:00 +3°C° 0 mm 4 m/s 730 mmHg 86%
02:00 +3°C° 0 mm 3 m/s 730 mmHg 88%
03:00 +2°C° 0 mm 3 m/s 730 mmHg 89%
04:00 +3°C° 0 mm 2 m/s 730 mmHg 90%
05:00 +4°C° 0 mm 1 m/s 729 mmHg 92%
06:00 +3°C° 0 mm 1 m/s 729 mmHg 93%
07:00 +3°C° 0 mm 1 m/s 729 mmHg 93%
08:00 +3°C° 0 mm 1 m/s 729 mmHg 94%
09:00 +2°C° 0.6 mm 2 m/s 729 mmHg 95%
10:00 +1°C° 0.6 mm 2 m/s 729 mmHg 96%
11:00 +1°C° 0.6 mm 2 m/s 729 mmHg 97%
12:00 +1°C° 0.3 mm 2 m/s 729 mmHg 97%
13:00 0°C° 0.3 mm 3 m/s 729 mmHg 97%
14:00 0°C° 0.3 mm 3 m/s 728 mmHg 97%
15:00 -1°C° 0.5 mm 3 m/s 728 mmHg 97%
16:00 -1°C° 0.5 mm 3 m/s 729 mmHg 97%
17:00 -2°C° 0.5 mm 4 m/s 729 mmHg 97%
18:00 -2°C° 0.1 mm 4 m/s 729 mmHg 97%
19:00 -2°C° 0.1 mm 4 m/s 730 mmHg 97%
20:00 -2°C° 0.1 mm 4 m/s 730 mmHg 97%
21:00 -2°C° 0 mm 4 m/s 730 mmHg 95%
22:00 -2°C° 0 mm 4 m/s 731 mmHg 94%
23:00 -1°C° 0 mm 3 m/s 731 mmHg 93%

Après-demain, 25 Janvier, Lundi

Heure Température Précipitation Vent Pression Humidité
00:00 -1°C° 0 mm 3 m/s 731 mmHg 93%
01:00 -1°C° 0 mm 2 m/s 731 mmHg 93%
02:00 +1°C° 0 mm 1 m/s 732 mmHg 93%
03:00 0°C° 0 mm 1 m/s 732 mmHg 94%
04:00 0°C° 0 mm 1 m/s 732 mmHg 94%
05:00 -2°C° 0 mm 2 m/s 732 mmHg 94%
06:00 0°C° 0 mm 1 m/s 733 mmHg 94%
07:00 0°C° 0 mm 1 m/s 733 mmHg 94%
08:00 0°C° 0 mm 1 m/s 733 mmHg 94%
09:00 0°C° 0 mm 1 m/s 733 mmHg 91%
10:00 0°C° 0 mm 1 m/s 733 mmHg 88%
11:00 -1°C° 0 mm 2 m/s 734 mmHg 85%
12:00 -1°C° 0 mm 2 m/s 733 mmHg 85%
13:00 -1°C° 0 mm 3 m/s 733 mmHg 85%
14:00 -2°C° 0 mm 4 m/s 733 mmHg 85%
15:00 -2°C° 0.1 mm 4 m/s 733 mmHg 87%
16:00 -2°C° 0.1 mm 5 m/s 733 mmHg 89%
17:00 -3°C° 0.1 mm 6 m/s 733 mmHg 91%
18:00 -4°C° 0.5 mm 6 m/s 733 mmHg 92%
19:00 -4°C° 0.5 mm 7 m/s 733 mmHg 92%
20:00 -5°C° 0.5 mm 8 m/s 732 mmHg 93%
21:00 -5°C° 0.9 mm 8 m/s 732 mmHg 93%
22:00 -5°C° 0.9 mm 9 m/s 732 mmHg 93%
23:00 -5°C° 0.9 mm 9 m/s 732 mmHg 94%

26 Janvier, Mardi

Heure Température Précipitation Vent Pression Humidité
00:00 -5°C° 0.7 mm 10 m/s 731 mmHg 92%
01:00 -5°C° 0.7 mm 10 m/s 731 mmHg 91%
02:00 -7°C° 0.7 mm 10 m/s 731 mmHg 90%
03:00 -7°C° 0.3 mm 10 m/s 731 mmHg 89%
04:00 -7°C° 0.3 mm 10 m/s 731 mmHg 88%
05:00 -7°C° 0.3 mm 11 m/s 731 mmHg 87%
06:00 -7°C° 0.1 mm 10 m/s 731 mmHg 88%
07:00 -5°C° 0.1 mm 10 m/s 731 mmHg 88%
08:00 -5°C° 0.1 mm 10 m/s 731 mmHg 88%
09:00 -5°C° 0.1 mm 10 m/s 732 mmHg 88%
10:00 -5°C° 0.1 mm 10 m/s 732 mmHg 89%
11:00 -5°C° 0.1 mm 10 m/s 732 mmHg 89%
12:00 -5°C° 0.2 mm 10 m/s 733 mmHg 89%
13:00 -5°C° 0.2 mm 10 m/s 733 mmHg 90%
14:00 -5°C° 0.2 mm 10 m/s 733 mmHg 90%
15:00 -5°C° 0.2 mm 10 m/s 734 mmHg 91%
16:00 -5°C° 0.2 mm 10 m/s 734 mmHg 92%
17:00 -5°C° 0.2 mm 10 m/s 735 mmHg 93%
18:00 -5°C° 0.2 mm 10 m/s 735 mmHg 91%
19:00 -5°C° 0.2 mm 10 m/s 735 mmHg 89%
20:00 -5°C° 0.2 mm 9 m/s 736 mmHg 88%
21:00 -5°C° 0.1 mm 9 m/s 736 mmHg 89%
22:00 -5°C° 0.1 mm 9 m/s 736 mmHg 91%
23:00 -5°C° 0.1 mm 8 m/s 737 mmHg 92%

27 Janvier, Mercredi

Heure Température Précipitation Vent Pression Humidité
00:00 -5°C° 0.1 mm 8 m/s 737 mmHg 91%
01:00 -5°C° 0.1 mm 8 m/s 737 mmHg 89%
02:00 -5°C° 0.1 mm 9 m/s 737 mmHg 88%
03:00 -6°C° 0 mm 8 m/s 737 mmHg 88%
04:00 -6°C° 0 mm 8 m/s 737 mmHg 88%
05:00 -6°C° 0 mm 7 m/s 737 mmHg 88%
06:00 -6°C° 0 mm 7 m/s 738 mmHg 88%
07:00 -6°C° 0 mm 6 m/s 738 mmHg 88%
08:00 -6°C° 0 mm 6 m/s 738 mmHg 88%
09:00 -5°C° 0 mm 6 m/s 738 mmHg 88%
10:00 -5°C° 0 mm 6 m/s 738 mmHg 88%
11:00 -5°C° 0 mm 6 m/s 739 mmHg 88%
12:00 -4°C° 0 mm 6 m/s 739 mmHg 87%
13:00 -4°C° 0 mm 6 m/s 739 mmHg 86%
14:00 -2°C° 0 mm 5 m/s 739 mmHg 84%
15:00 -2°C° 0 mm 5 m/s 739 mmHg 85%
16:00 -3°C° 0 mm 4 m/s 739 mmHg 86%
17:00 -2°C° 0 mm 3 m/s 739 mmHg 87%
18:00 -2°C° 0 mm 3 m/s 739 mmHg 87%
19:00 -4°C° 0 mm 3 m/s 740 mmHg 87%
20:00 -5°C° 0 mm 3 m/s 740 mmHg 88%
21:00 -5°C° 0 mm 3 m/s 740 mmHg 88%
22:00 -6°C° 0 mm 3 m/s 740 mmHg 89%
23:00 -6°C° 0 mm 3 m/s 740 mmHg 89%

28 Janvier, Jeudi

Heure Température Précipitation Vent Pression Humidité
00:00 -6°C° 0 mm 3 m/s 740 mmHg 91%
01:00 -6°C° 0 mm 3 m/s 740 mmHg 92%
02:00 -5°C° 0 mm 2 m/s 740 mmHg 93%
03:00 -5°C° 0 mm 2 m/s 740 mmHg 94%
04:00 -5°C° 0 mm 2 m/s 740 mmHg 95%
05:00 -5°C° 0 mm 2 m/s 740 mmHg 96%
06:00 -5°C° 0 mm 2 m/s 741 mmHg 96%
07:00 -5°C° 0 mm 2 m/s 741 mmHg 95%
08:00 -5°C° 0 mm 2 m/s 741 mmHg 95%
09:00 -4°C° 0 mm 2 m/s 741 mmHg 94%
10:00 -3°C° 0 mm 2 m/s 741 mmHg 94%
11:00 -2°C° 0 mm 2 m/s 741 mmHg 93%
12:00 -2°C° 0 mm 2 m/s 741 mmHg 92%
13:00 -2°C° 0 mm 2 m/s 740 mmHg 91%
14:00 -1°C° 0 mm 2 m/s 740 mmHg 90%
15:00 -2°C° 0.1 mm 2 m/s 740 mmHg 90%
16:00 -2°C° 0.1 mm 2 m/s 740 mmHg 90%
17:00 -1°C° 0.1 mm 1 m/s 739 mmHg 91%
18:00 -2°C° 0 mm 1 m/s 739 mmHg 91%
19:00 -2°C° 0 mm 1 m/s 739 mmHg 91%
20:00 -3°C° 0 mm 1 m/s 739 mmHg 91%
Voir plus

Nous avons besoin de votre consentement

Meteoprog et ses fournisseurs de services peuvent stocker et accéder à des données personnelles telles que des cookies, des identifiants d'appareils ou d'autres technologies similaires sur votre appareil et traiter ces données pour personnaliser le contenu et les publicités, ainsi que pour fournir des fonctionnalités de médias sociaux et analyser le trafic.

  • Stocker et/ou accéder à des informations sur votre appareil

    Des cookies, des identifiants d'appareils ou d'autres informations peuvent être stockés ou accessibles sur votre appareil aux fins indiquées ci-dessus.

  • Annonces et contenus personnalisés, mesure des annonces et des contenus, connaissance de l'audience et développement de produits

    Les annonces et le contenu peuvent être personnalisés en fonction d'un profil. D'autres données peuvent être ajoutées pour mieux personnaliser les annonces et le contenu. Les performances des publicités et du contenu peuvent être mesurées. Il est possible d'obtenir des informations sur le public qui a vu les publicités et le contenu. Ces données peuvent être utilisées pour développer ou améliorer l'expérience de l'utilisateur, les systèmes et les logiciels.

En cliquant sur "J'accepte", vous autorisez l'utilisation de cookies, des identifiants d'appareils, des balises web ou d'autres technologies similaires. Vos paramètres peuvent être modifiés dans le navigateur de votre appareil.

Dans certains cas, des intérêts légitimes peuvent être invoqués plutôt qu'un consentement. Vous pouvez en savoir plus à ce sujet dans notre Politique de confidentialité et de cookies.